sat.trackr.live / text

‹ back to catalog

STARLINK-11260 [DTC]

NORAD 60997 · 2024-158H

PAYLOAD ACTIVE UNKNOWN

§ Identity

Operator
Country
US
Launch date
2024-09-05
Launch site
AFETR
Launch vehicle
Mass (kg)
RCS (m²)

Purposes: comms

External: N2YO · Heavens-Above · Gunter

§ Orbital elements

Epoch: 2026-05-24T15:41:39.490656Z

Period
91.74 min
Inclination
53.1602°
Eccentricity
0.0000779
Mean motion
15.69705833 rev/d
Perigee alt
359.2 km
Apogee alt
360.3 km
Semi-major
6,737.9 km
B*
1.3688e-7
RAAN
244.6254°
Arg perigee
82.9712°
Mean anomaly
277.1394°
Rev number
9,988

§ Raw data

STARLINK-11260 [DTC]1 60997U 24158H   26144.65392929 -.00000571  00000+0  13688-6 0  99982 60997  53.1602 244.6254 0000779  82.9712 277.1394 15.69705833 99883

JSON: /api/v1/satellites/60997 · /tle

For live sub-satellite position, see the globe view (requires WebGL).

§ Visibility from observer

Set your observer location to see the next 7 days of passes ≥ 10°. The values pass through the URL so the page stays shareable.

No JS? Fill the form by hand. The geolocation button needs JavaScript.